• In India
  • List of Countries
  • For 7 days
  • Water Temperature
  • Satellite Maps
  • Weather Map
  • Weather Widgets
  • user-avatar
    Login

    Hourly Weather Klagenfurt

    Today, 16 December, Sunday

    Time Temperature Precipitation Wind Pressure Humidity
    00:00 -7°C° 0 mm 1 mps 689 mmHg 72%
    01:00 -7°C° 0 mm 1 mps 689 mmHg 71%
    02:00 -7°C° 0 mm 1 mps 689 mmHg 71%
    03:00 -7°C° 0 mm 1 mps 689 mmHg 71%
    04:00 -7°C° 0 mm 1 mps 689 mmHg 71%
    05:00 -7°C° 0 mm 1 mps 688 mmHg 71%
    06:00 -7°C° 0 mm 1 mps 688 mmHg 71%
    07:00 -7°C° 0 mm 1 mps 688 mmHg 70%
    08:00 -4°C° 0 mm 1 mps 688 mmHg 65%
    09:00 -3°C° 0 mm 1 mps 688 mmHg 61%
    10:00 -2°C° 0 mm 1 mps 689 mmHg 57%
    11:00 -1°C° 0 mm 1 mps 689 mmHg 54%
    12:00 0°C° 0 mm 1 mps 688 mmHg 52%
    13:00 +1°C° 0 mm 1 mps 688 mmHg 50%
    14:00 0°C° 0 mm 1 mps 688 mmHg 54%
    15:00 -1°C° 0 mm 1 mps 688 mmHg 59%
    16:00 -1°C° 0 mm 1 mps 688 mmHg 64%
    17:00 -2°C° 0 mm 1 mps 688 mmHg 65%
    18:00 -2°C° 0 mm 1 mps 688 mmHg 66%
    19:00 -2°C° 0 mm 1 mps 688 mmHg 67%
    20:00 -2°C° 0 mm 1 mps 688 mmHg 67%
    21:00 -3°C° 0 mm 0 mps 688 mmHg 67%
    22:00 -3°C° 0 mm 0 mps 688 mmHg 66%
    23:00 -3°C° 0 mm 0 mps 688 mmHg 66%

    Tomorrow, 17 December, Monday

    Time Temperature Precipitation Wind Pressure Humidity
    00:00 -3°C° 0 mm 0 mps 688 mmHg 66%
    01:00 -2°C° 0 mm 0 mps 688 mmHg 66%
    02:00 -2°C° 0 mm 0 mps 688 mmHg 66%
    03:00 -1°C° 0 mm 1 mps 688 mmHg 66%
    04:00 -1°C° 0 mm 1 mps 688 mmHg 66%
    05:00 -1°C° 0 mm 1 mps 688 mmHg 67%
    06:00 -1°C° 0 mm 1 mps 688 mmHg 68%
    07:00 -1°C° 0 mm 1 mps 688 mmHg 70%
    08:00 -1°C° 0 mm 1 mps 689 mmHg 69%
    09:00 0°C° 0 mm 1 mps 689 mmHg 67%
    10:00 0°C° 0 mm 1 mps 690 mmHg 66%
    11:00 +1°C° 0 mm 1 mps 690 mmHg 65%
    12:00 +2°C° 0 mm 1 mps 690 mmHg 64%
    13:00 +2°C° 0 mm 1 mps 691 mmHg 63%
    14:00 +2°C° 0 mm 1 mps 691 mmHg 67%
    15:00 +1°C° 0 mm 1 mps 691 mmHg 72%
    16:00 0°C° 0 mm 1 mps 692 mmHg 76%
    17:00 0°C° 0 mm 1 mps 692 mmHg 78%
    18:00 0°C° 0 mm 1 mps 693 mmHg 80%
    19:00 -1°C° 0 mm 1 mps 693 mmHg 82%
    20:00 -1°C° 0 mm 1 mps 694 mmHg 83%
    21:00 -1°C° 0 mm 1 mps 694 mmHg 83%
    22:00 -1°C° 0 mm 1 mps 695 mmHg 84%
    23:00 -1°C° 0 mm 1 mps 695 mmHg 84%

    Day after tomorrow, 18 December, Tuesday

    Time Temperature Precipitation Wind Pressure Humidity
    00:00 -2°C° 0 mm 1 mps 695 mmHg 84%
    01:00 -2°C° 0 mm 1 mps 695 mmHg 84%
    02:00 -2°C° 0 mm 1 mps 695 mmHg 84%
    03:00 -2°C° 0 mm 1 mps 695 mmHg 84%
    04:00 -2°C° 0 mm 1 mps 695 mmHg 84%
    05:00 -2°C° 0 mm 1 mps 695 mmHg 84%
    06:00 -2°C° 0 mm 1 mps 696 mmHg 84%
    07:00 -2°C° 0 mm 1 mps 696 mmHg 83%
    08:00 -1°C° 0 mm 1 mps 696 mmHg 78%
    09:00 0°C° 0 mm 1 mps 696 mmHg 73%
    10:00 0°C° 0 mm 0 mps 697 mmHg 68%
    11:00 +2°C° 0 mm 1 mps 696 mmHg 65%
    12:00 +3°C° 0 mm 1 mps 696 mmHg 62%
    13:00 +4°C° 0 mm 1 mps 696 mmHg 59%
    14:00 +3°C° 0 mm 1 mps 695 mmHg 65%
    15:00 +2°C° 0 mm 1 mps 695 mmHg 72%
    16:00 0°C° 0 mm 1 mps 695 mmHg 78%
    17:00 0°C° 0 mm 1 mps 694 mmHg 80%
    18:00 -1°C° 0 mm 1 mps 694 mmHg 82%
    19:00 -1°C° 0 mm 1 mps 694 mmHg 83%
    20:00 -1°C° 0 mm 1 mps 694 mmHg 83%
    21:00 -2°C° 0 mm 1 mps 694 mmHg 82%
    22:00 -2°C° 0 mm 1 mps 694 mmHg 82%
    23:00 -2°C° 0 mm 1 mps 693 mmHg 81%

    19 December, Wednesday

    Time Temperature Precipitation Wind Pressure Humidity
    00:00 -2°C° 0 mm 1 mps 693 mmHg 80%
    01:00 -2°C° 0 mm 1 mps 693 mmHg 79%
    02:00 -2°C° 0 mm 1 mps 692 mmHg 77%
    03:00 -2°C° 0 mm 1 mps 692 mmHg 76%
    04:00 -2°C° 0 mm 1 mps 691 mmHg 74%
    05:00 -2°C° 0 mm 1 mps 691 mmHg 73%
    06:00 -2°C° 0 mm 1 mps 691 mmHg 72%
    07:00 -2°C° 0 mm 1 mps 691 mmHg 71%
    08:00 -1°C° 0 mm 1 mps 691 mmHg 67%
    09:00 0°C° 0 mm 1 mps 691 mmHg 64%
    10:00 +2°C° 0 mm 1 mps 692 mmHg 61%
    11:00 +2°C° 0 mm 1 mps 692 mmHg 60%
    12:00 +3°C° 0 mm 1 mps 691 mmHg 59%
    13:00 +4°C° 0 mm 1 mps 691 mmHg 59%
    14:00 +3°C° 0 mm 1 mps 691 mmHg 64%
    15:00 +2°C° 0 mm 1 mps 691 mmHg 70%
    16:00 +1°C° 0 mm 1 mps 690 mmHg 76%
    17:00 +1°C° 0 mm 1 mps 690 mmHg 79%
    18:00 0°C° 0 mm 1 mps 690 mmHg 82%
    19:00 0°C° 0 mm 1 mps 690 mmHg 86%
    20:00 0°C° 0 mm 1 mps 690 mmHg 87%
    21:00 0°C° 0 mm 1 mps 690 mmHg 87%
    22:00 0°C° 0 mm 1 mps 690 mmHg 88%
    23:00 0°C° 0.1 mm 1 mps 690 mmHg 89%

    20 December, Thursday

    Time Temperature Precipitation Wind Pressure Humidity
    00:00 0°C° 0.1 mm 1 mps 690 mmHg 89%
    01:00 +1°C° 0.1 mm 1 mps 690 mmHg 89%
    02:00 +1°C° 0.2 mm 1 mps 690 mmHg 90%
    03:00 +1°C° 0.2 mm 1 mps 690 mmHg 91%
    04:00 +1°C° 0.2 mm 1 mps 689 mmHg 91%
    05:00 +1°C° 0.7 mm 1 mps 689 mmHg 92%
    06:00 +1°C° 0.7 mm 1 mps 689 mmHg 93%
    07:00 +1°C° 0.7 mm 1 mps 689 mmHg 93%
    08:00 +2°C° 1.8 mm 1 mps 689 mmHg 93%
    09:00 +2°C° 1.8 mm 1 mps 689 mmHg 93%
    10:00 +2°C° 1.8 mm 1 mps 690 mmHg 93%
    11:00 +2°C° 1.4 mm 1 mps 689 mmHg 93%
    12:00 +2°C° 1.4 mm 1 mps 689 mmHg 93%
    13:00 +2°C° 1.4 mm 1 mps 689 mmHg 93%
    14:00 +2°C° 1.1 mm 1 mps 689 mmHg 93%
    15:00 +2°C° 1.1 mm 1 mps 690 mmHg 93%
    16:00 +1°C° 1.1 mm 1 mps 690 mmHg 93%
    17:00 +1°C° 0.3 mm 1 mps 690 mmHg 93%
    18:00 +1°C° 0.3 mm 1 mps 691 mmHg 92%
    19:00 0°C° 0.3 mm 1 mps 692 mmHg 92%
    20:00 0°C° 0 mm 1 mps 692 mmHg 92%
    21:00 -1°C° 0 mm 1 mps 692 mmHg 92%
    22:00 -1°C° 0 mm 1 mps 693 mmHg 91%
    23:00 -2°C° 0 mm 1 mps 693 mmHg 90%

    21 December, Friday

    Time Temperature Precipitation Wind Pressure Humidity
    00:00 -2°C° 0 mm 1 mps 693 mmHg 90%
    01:00 -2°C° 0 mm 1 mps 693 mmHg 89%
    02:00 -3°C° 0 mm 1 mps 693 mmHg 88%
    03:00 -3°C° 0 mm 1 mps 693 mmHg 88%
    04:00 -3°C° 0 mm 1 mps 693 mmHg 88%
    05:00 -3°C° 0 mm 1 mps 693 mmHg 87%
    06:00 -3°C° 0 mm 1 mps 693 mmHg 87%
    07:00 -3°C° 0 mm 1 mps 693 mmHg 86%
    08:00 -2°C° 0 mm 1 mps 694 mmHg 85%
    09:00 0°C° 0 mm 1 mps 694 mmHg 83%
    10:00 +1°C° 0 mm 1 mps 694 mmHg 82%
    11:00 +2°C° 0 mm 1 mps 693 mmHg 82%
    12:00 +3°C° 0 mm 1 mps 693 mmHg 82%
    13:00 +4°C° 0 mm 1 mps 692 mmHg 82%
    14:00 +3°C° 0 mm 1 mps 692 mmHg 85%
    15:00 +2°C° 0 mm 1 mps 691 mmHg 88%
    16:00 +2°C° 0 mm 1 mps 691 mmHg 91%
    17:00 +1°C° 0 mm 2 mps 691 mmHg 91%
    18:00 -1°C° 0 mm 2 mps 691 mmHg 92%
    19:00 -1°C° 0 mm 2 mps 691 mmHg 92%
    20:00 -1°C° 0 mm 2 mps 691 mmHg 92%
    21:00 -1°C° 0 mm 2 mps 690 mmHg 92%
    22:00 -1°C° 0 mm 2 mps 690 mmHg 92%
    23:00 -2°C° 0 mm 2 mps 690 mmHg 92%
    Show more